User: anonymous   Login
Location: Unspecified
(0.0000°N, 0.0000°E)
Time: 03:36:05
(UTC+00:00)
Language:

NOAA 18 - Orbit

View from above orbital plane
View from above orbital plane
View from above satellite
View from above satellite

Ground track
Ground track

The orbit data is extracted from the following two-line orbital elements,

1 28654U 05018A   17177.54754575 -.00000003 +00000-0 +23505-4 0  9997
2 28654 099.1816 199.9906 0015157 048.8827 311.3650 14.12340712623487
Epoch (UTC): 26 June 2017 13:08:27
Eccentricity: 0.0015157
inclination: 99.1816°
perigee height: 840 km
apogee height: 862 km
right ascension of ascending node: 199.9906°
argument of perigee: 48.8827°
revolutions per day: 14.12340712
mean anomaly at epoch: 311.3650°
orbit number at epoch: 62348

The dashed part of the orbit path shows where the satellite is in the earth's shadow,  

DLR